Weather in Staropyshminsk

Russia / Sverdlovsk Oblast     56°55′56″N   60°54′05″E
temp.,
°C
wind,
m/s
gust,
m/s
humid.,
%
clouds,
%
prec.,
mm/h
press.,
hPa
HPBL,
m
23 october, sat
sat2323:00+8sw61486100 0.6 9971221
02:00+8wsw71584100 0.0 9981075
05:00+8wsw71483100 0.1 9991027
08:00+9wsw61480100 0.1 10001310
11:00+9wsw71571100 0.1 10011594
14:00+11wsw717565 0.0 10021937
17:00+9w715605 0.0 10051473
20:00+7w614645 0.0 10071172
24 october, sun
sun2423:00+6wsw5137598 0.0 1009959
02:00+5wsw4117494 0.0 1010643
05:00+4sw410855 0.0 1011415
08:00+3ssw3993100 0.0 1011253
11:00+6ssw3878100 0.0 1010473
14:00+4ese1294100 2.4 1007550
17:00+3n2397100 6.1 1005451
20:00+2w4896100 1.4 1007428
25 october, mon
mon2523:00+3w51185100 1.4 10081075
02:00+4wsw51171100 0.0 10091447
05:00+3w51177100 0.0 10101201
08:00+3wsw4878100 0.1 1011939
11:00+4w4771100 0.1 1011813
14:00+4wsw4763100 0.0 10101294
17:00+3wsw3772100 0.1 1009730
20:00+2w3892100 0.1 1009627
26 october, tue
tue2623:00−1nw51193100 1.3 1010797
02:00−2nw6117872 0.3 1012887
05:00−4nw6127762 0.3 1014857
08:00−3wnw6127786 0.0 1015981
11:00−1wnw6106761 0.0 10171115
14:000wnw595254 0.0 10181400
17:00−1w49615 0.0 1018947
20:00−2w396950 0.0 1019504
27 october, wed
wed2723:00−2sw398581 0.0 1019601
02:00−2sw3109282 0.1 1018628
05:00−1sw41088100 0.3 1017711
08:00−1sw41087100 0.3 1017669
11:00+1wsw4107992 0.4 1016738
14:00+2wsw51075100 0.0 1016804
17:00+1wsw51181100 0.1 1016788
20:00+1wsw51180100 0.0 1015846